TimeCST,TemperatureF,Dew PointF,Humidity,Sea Level PressureIn,VisibilityMPH,Wind Direction,Wind SpeedMPH,Gust SpeedMPH,PrecipitationIn,Events,Conditions,WindDirDegrees,DateUTC
12:15 AM,29.7,27.3,91,30.07,10.0,NNW,8.1,-,N/A,,Overcast,330,2014-02-16 06:15:00
12:35 AM,29.3,27.3,92,30.08,10.0,NNW,6.9,-,N/A,,Overcast,340,2014-02-16 06:35:00
12:55 AM,29.3,27.1,92,30.08,10.0,Calm,Calm,-,N/A,,Overcast,0,2014-02-16 06:55:00
1:15 AM,29.7,27.0,90,30.11,10.0,North,3.5,-,N/A,,Overcast,350,2014-02-16 07:15:00
1:35 AM,28.8,26.1,90,30.12,10.0,NNW,9.2,-,N/A,,Overcast,330,2014-02-16 07:35:00
1:55 AM,27.5,25.5,92,30.13,10.0,NW,9.2,-,N/A,,Overcast,310,2014-02-16 07:55:00
2:15 AM,27.3,25.2,92,30.12,10.0,North,6.9,-,N/A,,Overcast,350,2014-02-16 08:15:00
2:35 AM,26.6,24.8,93,30.14,10.0,NNW,8.1,-,N/A,,Overcast,340,2014-02-16 08:35:00
2:55 AM,26.4,24.6,93,30.13,10.0,North,3.5,-,N/A,,Overcast,360,2014-02-16 08:55:00
3:15 AM,25.7,23.9,93,30.12,10.0,Calm,Calm,-,N/A,,Overcast,0,2014-02-16 09:15:00
3:35 AM,24.4,22.8,94,30.12,10.0,North,6.9,-,N/A,,Overcast,350,2014-02-16 09:35:00
3:55 AM,23.9,22.6,95,30.13,10.0,NNW,8.1,-,N/A,,Overcast,330,2014-02-16 09:55:00
4:15 AM,23.7,22.3,94,30.13,10.0,NNW,5.8,9.2,N/A,,Overcast,340,2014-02-16 10:15:00
4:35 AM,23.5,22.1,94,30.14,10.0,NNW,6.9,-,N/A,,Overcast,330,2014-02-16 10:35:00
4:55 AM,23.4,21.9,94,30.13,10.0,North,6.9,-,N/A,,Overcast,10,2014-02-16 10:55:00
5:15 AM,23.2,21.9,95,30.13,10.0,North,4.6,-,N/A,,Overcast,360,2014-02-16 11:15:00
5:35 AM,23.0,21.9,96,30.13,10.0,NNW,5.8,-,N/A,,Overcast,340,2014-02-16 11:35:00
5:55 AM,23.0,21.9,96,30.14,10.0,North,3.5,-,N/A,,Overcast,360,2014-02-16 11:55:00
6:15 AM,23.0,21.7,95,30.14,10.0,North,3.5,-,N/A,,Overcast,360,2014-02-16 12:15:00
6:35 AM,22.8,21.6,95,30.13,10.0,NNE,4.6,-,N/A,,Overcast,20,2014-02-16 12:35:00
6:55 AM,22.6,21.4,95,30.12,7.0,NE,6.9,-,N/A,,Overcast,50,2014-02-16 12:55:00
7:15 AM,22.5,21.2,95,30.12,7.0,NE,4.6,-,N/A,,Overcast,50,2014-02-16 13:15:00
7:35 AM,22.1,21.0,96,30.13,7.0,NE,5.8,-,N/A,,Overcast,50,2014-02-16 13:35:00
7:55 AM,21.7,19.8,92,30.13,10.0,ENE,9.2,-,N/A,,Overcast,70,2014-02-16 13:55:00
8:15 AM,21.2,19.2,92,30.13,10.0,East,9.2,-,N/A,,Overcast,80,2014-02-16 14:15:00
8:35 AM,21.7,19.4,91,30.16,10.0,ENE,8.1,-,N/A,,Overcast,70,2014-02-16 14:35:00
8:55 AM,22.1,19.9,91,30.16,10.0,ENE,6.9,-,N/A,,Overcast,70,2014-02-16 14:55:00
9:15 AM,22.1,19.6,90,30.15,10.0,ENE,8.1,-,N/A,,Overcast,70,2014-02-16 15:15:00
9:35 AM,22.5,19.8,89,30.15,7.0,East,8.1,-,N/A,,Overcast,90,2014-02-16 15:35:00
9:55 AM,23.0,20.3,89,30.14,7.0,East,6.9,-,N/A,,Overcast,90,2014-02-16 15:55:00
10:15 AM,23.4,20.3,88,30.14,7.0,ENE,9.2,-,N/A,,Overcast,70,2014-02-16 16:15:00
10:35 AM,24.6,21.2,87,30.12,7.0,East,9.2,-,N/A,,Mostly Cloudy,90,2014-02-16 16:35:00
10:55 AM,25.9,21.4,83,30.12,7.0,ESE,11.5,-,N/A,,Mostly Cloudy,110,2014-02-16 16:55:00
11:15 AM,26.8,22.1,83,30.10,7.0,ESE,12.7,17.3,N/A,,Overcast,120,2014-02-16 17:15:00
11:35 AM,28.2,22.8,80,30.09,5.0,ESE,15.0,-,N/A,,Haze,110,2014-02-16 17:35:00
11:55 AM,29.1,23.4,79,30.10,5.0,ESE,10.4,-,N/A,,Haze,120,2014-02-16 17:55:00
12:15 PM,30.0,23.9,78,30.08,5.0,SE,12.7,17.3,N/A,,Haze,130,2014-02-16 18:15:00
12:35 PM,29.3,23.7,80,30.06,7.0,SE,12.7,-,N/A,,Mostly Cloudy,140,2014-02-16 18:35:00
12:55 PM,30.9,24.4,77,30.05,10.0,SSE,13.8,-,N/A,,Scattered Clouds,150,2014-02-16 18:55:00
1:15 PM,32.0,24.4,74,30.04,10.0,ESE,13.8,17.3,N/A,,Scattered Clouds,120,2014-02-16 19:15:00
1:35 PM,33.8,25.2,71,30.02,10.0,SE,15.0,20.7,N/A,,Scattered Clouds,130,2014-02-16 19:35:00
1:55 PM,33.4,25.2,72,30.01,10.0,SE,12.7,19.6,N/A,,Clear,140,2014-02-16 19:55:00
2:15 PM,32.0,25.5,77,30.00,10.0,ESE,15.0,-,N/A,,Clear,120,2014-02-16 20:15:00
2:35 PM,32.0,25.7,78,29.98,10.0,SE,13.8,-,N/A,,Scattered Clouds,130,2014-02-16 20:35:00
2:55 PM,32.2,26.6,80,29.97,10.0,SE,16.1,21.9,N/A,,Scattered Clouds,130,2014-02-16 20:55:00
3:15 PM,34.0,27.5,77,29.95,10.0,SE,13.8,23.0,N/A,,Clear,130,2014-02-16 21:15:00
3:35 PM,34.9,27.7,75,29.94,10.0,ESE,13.8,23.0,N/A,,Clear,120,2014-02-16 21:35:00
3:55 PM,36.1,28.2,73,29.92,10.0,SE,16.1,25.3,N/A,,Clear,130,2014-02-16 21:55:00
4:15 PM,37.2,28.8,71,29.91,10.0,SE,21.9,25.3,N/A,,Clear,130,2014-02-16 22:15:00
4:35 PM,36.7,28.9,74,29.91,10.0,SE,15.0,23.0,N/A,,Clear,130,2014-02-16 22:35:00
4:55 PM,35.6,28.9,77,29.90,10.0,SE,18.4,26.5,N/A,,Clear,130,2014-02-16 22:55:00
5:15 PM,34.9,29.1,79,29.90,10.0,SE,13.8,23.0,N/A,,Clear,130,2014-02-16 23:15:00
5:35 PM,34.0,29.3,83,29.90,10.0,ESE,13.8,24.2,N/A,,Clear,120,2014-02-16 23:35:00
5:55 PM,33.3,29.3,85,29.90,10.0,SE,15.0,-,N/A,,Clear,130,2014-02-16 23:55:00
6:15 PM,32.9,29.1,86,29.89,10.0,SE,18.4,24.2,N/A,,Clear,130,2014-02-17 00:15:00
6:35 PM,32.4,29.1,88,29.90,10.0,SE,19.6,23.0,N/A,,Clear,130,2014-02-17 00:35:00
6:55 PM,32.4,29.1,88,29.90,10.0,SE,15.0,20.7,N/A,,Clear,140,2014-02-17 00:55:00
7:15 PM,32.0,28.9,88,29.90,10.0,SE,17.3,23.0,N/A,,Clear,140,2014-02-17 01:15:00
7:35 PM,32.0,28.9,88,29.90,10.0,SE,13.8,20.7,N/A,,Clear,130,2014-02-17 01:35:00
7:55 PM,32.0,28.9,88,29.90,10.0,SE,17.3,-,N/A,,Clear,140,2014-02-17 01:55:00
8:15 PM,32.0,28.8,88,29.88,10.0,SE,16.1,24.2,N/A,,Clear,140,2014-02-17 02:15:00
8:35 PM,32.0,28.8,88,29.88,10.0,SE,15.0,23.0,N/A,,Clear,140,2014-02-17 02:35:00
8:55 PM,31.8,28.4,87,29.89,10.0,SE,15.0,24.2,N/A,,Clear,140,2014-02-17 02:55:00
9:15 PM,31.5,28.4,88,29.89,10.0,SE,11.5,17.3,N/A,,Clear,140,2014-02-17 03:15:00
9:35 PM,31.6,28.6,88,29.87,10.0,SE,11.5,-,N/A,,Clear,130,2014-02-17 03:35:00
9:55 PM,31.8,28.8,88,29.87,10.0,ESE,11.5,-,N/A,,Clear,120,2014-02-17 03:55:00
10:15 PM,31.5,28.4,88,29.86,10.0,SE,15.0,20.7,N/A,,Clear,130,2014-02-17 04:15:00
10:35 PM,31.1,28.2,89,29.85,10.0,ESE,10.4,17.3,N/A,,Clear,120,2014-02-17 04:35:00
10:55 PM,31.1,28.4,90,29.84,10.0,ESE,10.4,-,N/A,,Clear,120,2014-02-17 04:55:00
11:15 PM,31.5,28.2,88,29.84,10.0,SE,10.4,-,N/A,,Clear,130,2014-02-17 05:15:00
11:35 PM,31.6,28.2,87,29.84,10.0,SE,16.1,20.7,N/A,,Clear,140,2014-02-17 05:35:00
11:55 PM,31.6,27.9,86,29.83,10.0,SE,10.4,20.7,N/A,,Clear,140,2014-02-17 05:55:00